Meteo Giornale » Osservazioni meteo Myanmar (Birmania) » Yangon
ore: 11:30 - Osservazioni Meteo Yangon
Lat. 16° 46' N Lon. 96° 10' E Alt. 14 metri s.l.m.
30 °C
Coperto
Temp. 24 Ore
24 °C
30 °C
Sud-Est
9.3 Km/h
Dew point 27 °C
Umidità 84 %
Visibilità 7 Km
Il sole sorge alle ore 05:51
Il sole tramonta alle ore 18:19
| Data e Ora | Cielo e Fenomeni | T °C | DP °C | Um. % | Pres. hPa | Vis. km | Vento km/h | |
|---|---|---|---|---|---|---|---|---|
| Oggi h: 11:30 | Coperto | 30 | 27 | 84 | 1010 | 7 | SE 9.3 | |
| Oggi h: 11:00 | Coperto | 29 | 26 | 83 | 1010 | 7 | N 3.7 | |
| Oggi h: 10:30 | Coperto | 29 | 26 | 83 | 1010 | 6 | N 3.7 | |
| Oggi h: 10:00 | Coperto | 27 | 26 | 94 | 1010 | 6 | N 3.7 | |
| Oggi h: 09:30 | Coperto | 27 | 26 | 94 | 1011 | 6 | N 0 | |
| Oggi h: 09:00 | Coperto | 27 | 26 | 94 | 1010 | 6 | N/NE 9.3 | |
| Oggi h: 08:30 | Coperto | 27 | 26 | 94 | 1010 | 6 | N 3.7 | |
| Oggi h: 08:00 | Coperto | 26 | 25 | 94 | 1010 | 6 | N 3.7 | |
| Oggi h: 07:30 | Coperto | 26 | 25 | 94 | 1009 | 6 | N 3.7 | |
| Oggi h: 07:00 | Pioviggine | 25 | 25 | 100 | 1009 | 5 | N 3.7 | |
| Oggi h: 06:30 | Coperto | 25 | 25 | 100 | 1009 | 6 | N 3.7 | |
| Oggi h: 06:00 | Coperto | 25 | 25 | 100 | 1009 | 6 | N 3.7 | |
| Oggi h: 05:30 | Coperto | 25 | 25 | 100 | 1008 | 6 | N 0 | |
| Oggi h: 05:00 | Pioviggine | 25 | 25 | 100 | 1008 | 5 | N 0 | |
| Oggi h: 04:30 | Pioggia | 25 | 25 | 100 | 1008 | 5 | N 0 | |
| Oggi h: 04:00 | Pioggia | 25 | 25 | 100 | 1008 | 4 | NO 9.3 | |
| Oggi h: 03:30 | Pioviggine | 25 | 25 | 100 | 1008 | 5 | N 3.7 | |
| Oggi h: 03:00 | Pioggia | 24 | 24 | 100 | 1008 | 5 | N 0 | |
| Oggi h: 02:30 | Pioggia | 24 | 24 | 100 | 1008 | 4 | N 0 | |
| Oggi h: 02:00 | Pioggia | 24 | 24 | 100 | 1008 | 5 | N 3.7 | |
| Oggi h: 01:30 | Pioggia | 24 | 24 | 100 | 1009 | 5 | N 0 | |
| Oggi h: 01:00 | Pioggia | 24 | 24 | 100 | 1009 | 4 | N 3.7 | |
| Oggi h: 00:30 | Pioggia | 24 | 24 | 100 | 1009 | 5 | O 7.4 | |
| Oggi h: 00:00 | Pioviggine | 25 | 23 | 88 | 1009 | 6 | N 5.5 | |
| Ieri h: 23:30 | Coperto | 25 | 23 | 88 | 1010 | 6 | N 3.7 | |
| Ieri h: 23:00 | Coperto | 25 | 23 | 88 | 1010 | 6 | N 3.7 | |
| Ieri h: 22:30 | Pioviggine | 25 | 23 | 88 | 1010 | 6 | N 3.7 | |
| Ieri h: 22:00 | Pioviggine | 25 | 23 | 88 | 1010 | 6 | N 3.7 | |
| Ieri h: 21:30 | Pioviggine | 25 | 23 | 88 | 1009 | 6 | N 5.5 | |
| Ieri h: 21:00 | Pioviggine | 25 | 23 | 88 | 1009 | 6 | N 5.5 | |
| Ieri h: 20:30 | Pioviggine | 25 | 25 | 100 | 1009 | 6 | N 3.7 | |
| Ieri h: 20:00 | Pioggia | 25 | 25 | 100 | 1008 | 5 | N 3.7 | |
| Ieri h: 19:30 | Pioggia | 25 | 25 | 100 | 1008 | 5 | S 7.4 | |
| Ieri h: 19:00 | Pioggia | 25 | 25 | 100 | 1008 | 4 | N 5.5 | |
| Ieri h: 18:30 | Pioggia | 25 | 25 | 100 | 1008 | 4 | S/SO 9.3 | |
| Ieri h: 18:00 | Pioggia | 25 | 25 | 100 | 1007 | 4 | O/NO 13 | |
| Ieri h: 17:30 | Pioggia | 26 | 26 | 100 | 1006 | 5 | SO 7.4 | |
| Ieri h: 17:00 | Pioggia | 27 | 26 | 94 | 1006 | 5 | N 3.7 | |
| Ieri h: 16:30 | Pioviggine | 28 | 27 | 94 | 1006 | 6 | N 3.7 | |
| Ieri h: 16:00 | Coperto | 28 | 27 | 94 | 1006 | 6 | S/SO 9.3 | |
| Ieri h: 15:30 | Coperto | 28 | 27 | 94 | 1006 | 6 | S/SE 7.4 | |
| Ieri h: 15:00 | Coperto | 28 | 27 | 94 | 1006 | 6 | N 5.5 | |
| Ieri h: 14:30 | Coperto | 29 | 27 | 89 | 1006 | 6 | N 5.5 | |
| Ieri h: 14:00 | Pioviggine | 29 | 27 | 89 | 1007 | 6 | N 3.7 | |
| Ieri h: 13:30 | Pioviggine | 29 | 27 | 89 | 1007 | 6 | O 11.1 | |
| Ieri h: 13:00 | Pioviggine | 30 | 27 | 84 | 1007 | 6 | S/SO 9.3 | |
| Ieri h: 12:30 | Pioviggine | 30 | 27 | 84 | 1007 | 6 | O/NO 16.7 | |



